Overview Statistics Trail Chart Weather Telemetry Raw packets
 

This is the latest recevied weather packets stored in our database for station/object SQ5JP-4. If no packets are shown the sender has not sent any weather packets the latest 10 day(s).

<< 1 2 3 4 >>
Time Temp. Humidity Pressure Rain* Wind** Luminosity Snow
1788593646 17.22° C 100% 993.2 hPa - - - -
1788591848 16.67° C 100% 992.9 hPa - - - -
1788590947 16.67° C 100% 992.5 hPa - - - -
1788590047 16.11° C 100% 992.3 hPa - - - -
1788589146 15.56° C 100% 992.2 hPa - - - -
1788588246 15.56° C 100% 991.9 hPa - - - -
1788587346 15.56° C 100% 991.8 hPa - - - -
1788586446 15.56° C 100% 991.4 hPa - - - -
1788585579 15.56° C 100% 991.2 hPa - - - -
1788584646 15.56° C 100% 990.5 hPa - - - -
1788583745 15.56° C 100% 990.1 hPa - - - -
1788582845 15.56° C 100% 989.8 hPa - - - -
1788581945 16.11° C 100% 989.2 hPa - - - -
1788581045 16.11° C 100% 989 hPa - - - -
1788580145 16.11° C 100% 988.7 hPa - - - -
1788579245 16.11° C 100% 988.4 hPa - - - -
1788578345 16.11° C 100% 988.4 hPa - - - -
1788577445 16.67° C 100% 988.2 hPa - - - -
1788576544 16.67° C 100% 988.2 hPa - - - -
1788575644 16.67° C 100% 988 hPa - - - -
1788574744 16.67° C 100% 987.7 hPa - - - -
1788573844 17.22° C 100% 987.4 hPa - - - -
1788572944 17.22° C 100% 987.3 hPa - - - -
1788572044 17.22° C 100% 987.1 hPa - - - -
1788570246 17.22° C 100% 986.5 hPa - - - -

* Rain since midnight (hover to see other rain measurements)
** Current wind speed in m/s (hover to see current wind gust speed)